{"data":{"norad_id":68974,"intl_designator":"2026-099Z","name":"STARLINK-37362","alt_names":[],"object_type":"PAYLOAD","status":"ACTIVE","operator":null,"country":"US","launch_date":"2026-05-01","launch_site_code":"AFETR","launch_vehicle":null,"mission":null,"orbit_class":"UNKNOWN","rcs_meters":null,"size_class":null,"mass_kg":null,"dimensions":null,"purposes":["comms"],"wikipedia_slug":null,"has_3d_model":false,"image_url":null,"decayed_at":null,"tle_current":{"epoch":"2026-09-19T19:43:17.553216Z","epoch_age_seconds":77983,"freshness":"FRESH","line1":"1 68974U 26099Z   26262.82173094  .00017398  00000+0  52483-3 0  9994","line2":"2 68974  53.1586  78.7208 0001302 111.0408 249.0734 15.34400883 21803","mean_motion":15.34400883,"eccentricity":0.0001302,"inclination_deg":53.1586,"raan_deg":78.7208,"arg_perigee_deg":111.0408,"mean_anomaly_deg":249.0734,"bstar":0.00052483,"rev_number":2180,"period_min":93.847704074868,"perigee_km":461.80993868871,"apogee_km":463.59129280385,"semimajor_km":6840.8376157463,"source":"CELESTRAK","updated_at":"2026-09-20T09:00:44.056391Z"}}}